[[{"header":{"parameterUnit":"m.s-1","parameterCategory":1,"la1":30.2991,"la2":30.254,"lo1":-89.0895,"lo2":-89.0444,"dy":0.0017,"dx":0.0017,"nx":28,"ny":28,"refTime":"2024-12-03T03:00:00:Z","depth":0,"parameterNumber":2,"parameterNumberName":"U-component_of_WINDS"},"data":[0,0,0,0,0,0,0,0,0,0,0,0,0,0,0,0,0,0,0,0,0,0,0,0,0,0,0,0,0,0,0,0,0,0,0,0,0,0,0,0,0,0,0,0,0,0,0,0,0,0,0,0,0,0,0,0,0,0,-0.1485,-0.1486,0,-0.1575,-0.1576,-0.1577,-0.1607,-0.1606,-0.1606,-0.1606,-0.1698,-0.1701,-0.1703,0,0,0,0,0,0,0,0,0,0,0,0,0,-0.1339,-0.1341,-0.1485,-0.1486,-0.1488,-0.1575,-0.1576,-0.1577,-0.1607,-0.1606,-0.1606,-0.1605,-0.1697,-0.17,-0.1704,0,0,0,0,0,0,0,0,0,0,0,0,0,-0.1413,-0.1342,-0.1485,-0.1513,-0.1516,-0.1575,-0.1576,-0.1578,-0.1607,-0.1606,-0.1606,-0.1605,-0.1696,-0.17,-0.1704,-0.1742,0,0,-0.1717,-0.1719,0,0,0,0,0,0,0,0,-0.1409,-0.1418,-0.1507,-0.1511,-0.1515,-0.1579,-0.1558,-0.1633,-0.1607,-0.1572,-0.1606,-0.1605,-0.1659,-0.1666,-0.1684,-0.1746,-0.175,-0.1717,-0.172,-0.1722,-0.1723,0,0,0,0,0,0,0,-0.1404,-0.1415,-0.1521,-0.1509,-0.1513,-0.152,-0.153,-0.1573,-0.1618,-0.1575,-0.1578,-0.1588,-0.1661,-0.168,-0.1687,-0.1752,-0.1717,-0.1721,-0.1724,-0.1725,-0.1849,-0.1849,0,0,0,0,0,0,-0.1394,-0.141,-0.1518,-0.1524,-0.1459,-0.1524,-0.1535,-0.1559,-0.1617,-0.1626,-0.1588,-0.1589,-0.1673,-0.1682,-0.169,-0.1738,-0.1722,-0.1726,-0.1728,-0.1848,-0.1849,-0.185,0,0,0,0,0,0,-0.139,-0.1403,-0.1514,-0.1468,-0.1482,-0.1527,-0.1554,-0.1561,-0.1581,-0.1627,-0.1635,-0.16,-0.1673,-0.1684,-0.1729,-0.1742,-0.1728,-0.1732,-0.1847,-0.1848,-0.1849,-0.1835,0,0,0,0,0,0,-0.1386,-0.1402,-0.1417,-0.1468,-0.1485,-0.1552,-0.1555,-0.1563,-0.1588,-0.1589,-0.164,-0.1648,-0.1673,-0.1722,-0.1733,-0.1747,-0.1735,-0.1846,-0.1848,-0.1849,-0.1834,-0.1835,-0.1836,0,0,0,0,0,-0.1381,-0.1409,-0.1417,-0.143,-0.1504,-0.1552,-0.1562,-0.1591,-0.1589,-0.1604,-0.1634,-0.1646,-0.1738,-0.1727,-0.1739,-0.1755,-0.1846,-0.1847,-0.1849,-0.1834,-0.1835,-0.1836,0,0,0,0,0,0,-0.1359,-0.1416,-0.1426,-0.1472,-0.1507,-0.1557,-0.1578,-0.1591,-0.1628,-0.1628,-0.1661,-0.1673,-0.1715,-0.1739,-0.1725,-0.1794,-0.1792,-0.1797,-0.1777,-0.1778,-0.1779,-0.1773,-0.1738,0,0,0,0,0,-0.1359,-0.1394,-0.1442,-0.1478,-0.1495,-0.1533,-0.1555,-0.1574,-0.1612,-0.1627,-0.166,-0.1696,-0.1733,-0.1757,-0.1794,-0.1837,-0.1849,-0.1854,-0.1855,-0.1855,-0.1859,-0.1884,-0.1887,-0.1855,-0.1855,-0.1855,0,0,-0.1361,-0.1397,-0.1416,-0.1474,-0.1504,-0.1538,-0.1545,-0.1582,-0.1608,-0.1632,-0.1677,-0.1702,-0.1745,-0.1789,-0.181,-0.1811,-0.187,-0.1858,-0.1858,-0.1861,-0.1886,-0.1889,-0.1891,-0.1856,-0.1856,-0.1856,0,0,-0.1382,-0.1412,-0.1445,-0.1474,-0.1518,-0.1543,-0.1551,-0.1599,-0.1617,-0.1662,-0.1681,-0.1712,-0.1775,-0.1804,-0.1828,-0.1858,-0.1871,-0.1869,-0.1874,-0.1897,-0.19,-0.1902,-0.1913,-0.1917,-0.1872,-0.1872,-0.1872,0,-0.1378,-0.1431,-0.146,-0.1496,-0.152,-0.1543,-0.1577,-0.1604,-0.1658,-0.1674,-0.1674,-0.1753,-0.1783,-0.1835,-0.1842,-0.186,-0.187,-0.1864,-0.1897,-0.19,-0.1902,-0.1913,-0.1917,-0.1871,-0.1872,-0.1872,-0.1872,0,-0.1424,-0.1461,-0.1482,-0.1533,-0.156,-0.1595,-0.1629,-0.1652,-0.1668,-0.1693,-0.1738,-0.1775,-0.182,-0.1833,-0.1849,-0.1886,-0.1885,-0.189,-0.189,-0.1904,-0.1915,-0.1919,-0.1871,-0.1871,-0.1871,-0.1871,0,0,-0.1435,-0.1501,-0.1509,-0.1532,-0.1582,-0.1611,-0.1645,-0.1688,-0.1708,-0.1744,-0.1774,-0.1827,-0.1832,-0.1858,-0.1877,-0.1898,-0.1919,-0.1901,-0.1902,-0.1903,-0.1963,-0.1959,-0.1963,-0.1928,-0.1929,-0.1929,-0.1959,0,-0.1463,-0.1526,-0.1553,-0.1604,-0.1638,-0.166,-0.169,-0.1724,-0.1747,-0.178,-0.1806,-0.1842,-0.1846,-0.1862,-0.1883,-0.1912,-0.1932,-0.191,-0.1956,-0.1958,-0.1946,-0.1969,-0.1965,-0.1992,-0.1963,-0.1964,-0.1965,0,-0.1503,-0.1539,-0.1594,-0.1639,-0.1654,-0.1681,-0.1723,-0.1753,-0.1791,-0.1807,-0.1836,-0.1854,-0.1891,-0.1887,-0.1938,-0.1923,-0.1943,-0.196,-0.1962,-0.1968,-0.1963,-0.1976,-0.2001,-0.2005,-0.1972,-0.1971,-0.1971,0,-0.1506,-0.1568,-0.1609,-0.1628,-0.1682,-0.17,-0.1723,-0.1761,-0.1785,-0.1821,-0.1837,-0.1876,-0.1898,-0.1928,-0.1956,-0.1951,-0.2005,-0.2003,-0.2019,-0.2019,-0.2031,-0.203,-0.206,-0.2042,-0.2042,-0.2042,-0.2042,0,-0.1534,-0.1567,-0.1611,-0.1636,-0.1673,-0.1702,-0.1738,-0.1763,-0.1796,-0.1826,-0.1847,-0.1874,-0.1909,-0.1941,-0.1964,-0.2003,-0.2012,-0.2026,-0.2032,-0.2025,-0.2023,-0.2039,-0.2038,-0.2043,-0.2043,-0.2043,-0.2043,0,-0.1544,-0.1575,-0.162,-0.1667,-0.168,-0.1705,-0.1745,-0.177,-0.1794,-0.1832,-0.1842,-0.188,-0.1919,-0.195,-0.2,-0.2015,-0.2056,-0.2062,-0.2043,-0.2046,-0.2061,-0.2059,-0.2103,-0.211,-0.2087,-0.2087,-0.2087,0,-0.1561,-0.1586,-0.1635,-0.1657,-0.168,-0.1714,-0.1739,-0.1768,-0.1793,-0.1838,-0.1857,-0.1897,-0.1931,-0.1992,-0.2024,-0.2062,-0.207,-0.2082,-0.2076,-0.2068,-0.207,-0.2069,-0.2071,-0.2083,-0.2083,-0.2083,-0.2083,0,-0.1587,-0.16,-0.1635,-0.1674,-0.1702,-0.1735,-0.1768,-0.1784,-0.182,-0.1846,-0.1886,-0.1912,-0.1963,-0.2002,-0.2044,-0.2068,-0.2081,-0.2085,-0.2091,-0.2084,-0.2072,-0.2079,-0.2046,-0.2084,-0.2084,-0.2084,-0.2084,-0.2084,-0.1601,-0.1624,-0.1663,-0.17,-0.1728,-0.1758,-0.1783,-0.181,-0.1844,-0.1888,-0.1903,-0.1944,-0.1981,-0.2038,-0.2062,-0.2094,-0.2095,-0.2103,-0.2105,-0.2107,-0.2106,-0.2066,-0.2101,-0.2101,-0.2101,-0.2101,-0.2101,0,-0.1628,-0.1654,-0.1688,-0.1733,-0.1762,-0.1772,-0.1808,-0.1832,-0.1868,-0.1901,-0.1933,-0.1978,-0.2016,-0.2051,-0.209,-0.2109,-0.2117,-0.2119,-0.2118,-0.2123,-0.2103,-0.2094,-0.2112,-0.2112,-0.2112,-0.2112,-0.2112,-0.2112,-0.1646,-0.1686,-0.1704,-0.1758,-0.1783,-0.1823,-0.1843,-0.1871,-0.1897,-0.1947,-0.1978,-0.2,-0.2034,-0.2076,-0.2111,-0.212,-0.2134,-0.2134,-0.2145,-0.2126,-0.2125,-0.2123,-0.2115,-0.2137,-0.2137,-0.2163,-0.2163,-0.2163]},{"header":{"parameterUnit":"m.s-1","parameterCategory":1,"la1":30.2991,"la2":30.254,"lo1":-89.0895,"lo2":-89.0444,"dy":0.0017,"dx":0.0017,"nx":28,"ny":28,"refTime":"2024-12-03T03:00:00:Z","depth":0,"parameterNumber":3,"parameterNumberName":"V-component_of_WINDS"},"data":[0,0,0,0,0,0,0,0,0,0,0,0,0,0,0,0,0,0,0,0,0,0,0,0,0,0,0,0,0,0,0,0,0,0,0,0,0,0,0,0,0,0,0,0,0,0,0,0,0,0,0,0,0,0,0,0,0,0,-2.7635,-2.7636,0,-2.78,-2.7802,-2.7804,-2.7827,-2.7825,-2.7824,-2.7822,-2.7985,-2.799,-2.7996,0,0,0,0,0,0,0,0,0,0,0,0,0,-2.7331,-2.7336,-2.7634,-2.7636,-2.7639,-2.78,-2.7802,-2.7804,-2.7827,-2.7825,-2.7823,-2.7822,-2.7983,-2.7989,-2.7996,0,0,0,0,0,0,0,0,0,0,0,0,0,-2.7476,-2.7338,-2.7634,-2.767,-2.7674,-2.7799,-2.7802,-2.7805,-2.7827,-2.7825,-2.7823,-2.7821,-2.798,-2.7989,-2.7997,-2.8096,0,0,-2.8024,-2.8027,0,0,0,0,0,0,0,0,-2.7468,-2.7487,-2.7662,-2.7667,-2.7673,-2.7791,-2.7755,-2.7902,-2.7828,-2.7769,-2.7822,-2.782,-2.7921,-2.7935,-2.7971,-2.8104,-2.8111,-2.8024,-2.803,-2.8033,-2.8036,0,0,0,0,0,0,0,-2.7457,-2.748,-2.77,-2.7665,-2.7671,-2.7675,-2.7693,-2.7783,-2.7856,-2.7774,-2.7776,-2.7796,-2.7924,-2.7962,-2.7975,-2.8113,-2.8024,-2.8032,-2.8037,-2.804,-2.8335,-2.8337,0,0,0,0,0,0,-2.7442,-2.7471,-2.7694,-2.7705,-2.7563,-2.7682,-2.7702,-2.7755,-2.7855,-2.7868,-2.7798,-2.7796,-2.7949,-2.7964,-2.798,-2.8102,-2.8033,-2.8041,-2.8046,-2.8332,-2.8335,-2.8338,0,0,0,0,0,0,-2.7435,-2.7462,-2.7688,-2.7589,-2.7618,-2.769,-2.7749,-2.776,-2.7798,-2.7873,-2.7885,-2.7824,-2.7947,-2.7968,-2.8068,-2.8108,-2.8045,-2.8053,-2.8329,-2.8333,-2.8337,-2.8347,0,0,0,0,0,0,-2.7427,-2.7459,-2.7499,-2.759,-2.7623,-2.7775,-2.7751,-2.7764,-2.7814,-2.7814,-2.7901,-2.7913,-2.7947,-2.8055,-2.8076,-2.8119,-2.806,-2.8326,-2.8331,-2.8335,-2.8343,-2.8351,-2.8357,0,0,0,0,0,-2.7416,-2.7494,-2.7501,-2.7528,-2.7675,-2.7777,-2.7796,-2.7836,-2.7817,-2.7857,-2.7905,-2.791,-2.81,-2.8065,-2.8089,-2.8135,-2.8323,-2.8329,-2.8335,-2.834,-2.8349,-2.8357,0,0,0,0,0,0,-2.7404,-2.7506,-2.7515,-2.7626,-2.7693,-2.7781,-2.7832,-2.7844,-2.7916,-2.7912,-2.7957,-2.7976,-2.8073,-2.8114,-2.8072,-2.8235,-2.821,-2.8221,-2.8205,-2.8214,-2.8221,-2.8209,-2.8067,0,0,0,0,0,-2.7414,-2.7491,-2.7576,-2.7665,-2.7698,-2.7759,-2.7805,-2.783,-2.79,-2.7928,-2.7983,-2.8049,-2.8123,-2.8171,-2.8244,-2.8349,-2.8368,-2.8393,-2.84,-2.8405,-2.8414,-2.8471,-2.8483,-2.8358,-2.8358,-2.8358,0,0,-2.7436,-2.7502,-2.7547,-2.7664,-2.7719,-2.7795,-2.7783,-2.7864,-2.792,-2.7939,-2.8037,-2.808,-2.8156,-2.8259,-2.8306,-2.8295,-2.8453,-2.8413,-2.8416,-2.8422,-2.8479,-2.849,-2.8501,-2.8362,-2.8361,-2.836,0,0,-2.7515,-2.7573,-2.7654,-2.7709,-2.7793,-2.7834,-2.7853,-2.7939,-2.7969,-2.8069,-2.8085,-2.8151,-2.8279,-2.8332,-2.8376,-2.8475,-2.8482,-2.8497,-2.8533,-2.8589,-2.8598,-2.8607,-2.8641,-2.8653,-2.8506,-2.8506,-2.8506,0,-2.7531,-2.7648,-2.7692,-2.7774,-2.7824,-2.7848,-2.7928,-2.7979,-2.8081,-2.8114,-2.8102,-2.8263,-2.8315,-2.843,-2.8455,-2.849,-2.8511,-2.8487,-2.8594,-2.8603,-2.8612,-2.8645,-2.8658,-2.8507,-2.8507,-2.8507,-2.8507,0,-2.7663,-2.7744,-2.7799,-2.79,-2.7956,-2.8036,-2.809,-2.8142,-2.8162,-2.8203,-2.8303,-2.8367,-2.8453,-2.8482,-2.8502,-2.86,-2.8591,-2.8585,-2.856,-2.8625,-2.8656,-2.8669,-2.8509,-2.8508,-2.8508,-2.8508,0,0,-2.7738,-2.7864,-2.7883,-2.7928,-2.8023,-2.8085,-2.8166,-2.8252,-2.8295,-2.8364,-2.8431,-2.8539,-2.8535,-2.8585,-2.8611,-2.866,-2.8733,-2.8649,-2.8651,-2.8661,-2.8843,-2.8846,-2.886,-2.8739,-2.8741,-2.8744,-2.8836,0,-2.7827,-2.7974,-2.8016,-2.8138,-2.8213,-2.8237,-2.8307,-2.8371,-2.8411,-2.8478,-2.8522,-2.8597,-2.8587,-2.8617,-2.8667,-2.8713,-2.877,-2.8708,-2.8799,-2.8802,-2.8778,-2.8877,-2.888,-2.8964,-2.8849,-2.8851,-2.8853,0,-2.795,-2.8025,-2.8155,-2.8241,-2.8273,-2.8336,-2.8418,-2.8483,-2.8555,-2.8581,-2.8637,-2.8659,-2.8741,-2.8713,-2.8825,-2.8782,-2.8822,-2.885,-2.8855,-2.8864,-2.883,-2.8887,-2.8992,-2.9004,-2.8873,-2.8871,-2.887,0,-2.799,-2.8123,-2.8219,-2.8257,-2.8359,-2.8402,-2.8446,-2.8517,-2.8566,-2.8637,-2.8669,-2.8748,-2.8791,-2.885,-2.8892,-2.8867,-2.9,-2.8976,-2.9022,-2.9021,-2.9048,-2.9045,-2.916,-2.9075,-2.9075,-2.9075,-2.9075,0,-2.8084,-2.8163,-2.8238,-2.8296,-2.8385,-2.8432,-2.8517,-2.8561,-2.8624,-2.869,-2.8715,-2.8775,-2.8827,-2.8894,-2.8927,-2.9014,-2.9033,-2.9055,-2.9062,-2.9052,-2.9049,-2.9078,-2.9072,-2.9078,-2.9078,-2.9077,-2.9076,0,-2.8143,-2.8197,-2.8303,-2.8391,-2.8415,-2.8476,-2.8551,-2.8607,-2.8649,-2.8732,-2.8753,-2.8818,-2.8898,-2.8946,-2.9046,-2.9068,-2.9164,-2.917,-2.914,-2.9144,-2.9187,-2.9182,-2.9323,-2.9343,-2.9246,-2.9247,-2.9248,0,-2.82,-2.8261,-2.8357,-2.8404,-2.8449,-2.8525,-2.8576,-2.8623,-2.8675,-2.8763,-2.8808,-2.889,-2.8958,-2.9085,-2.9138,-2.9215,-2.9222,-2.9266,-2.9233,-2.9221,-2.9221,-2.9216,-2.9222,-2.9271,-2.9272,-2.9272,-2.9273,0,-2.8293,-2.8317,-2.8391,-2.8474,-2.8535,-2.8602,-2.8669,-2.8705,-2.8764,-2.882,-2.8904,-2.8957,-2.9061,-2.9141,-2.9223,-2.9265,-2.9278,-2.9283,-2.9298,-2.9287,-2.9267,-2.9278,-2.9154,-2.9279,-2.9279,-2.9278,-2.9278,-2.9278,-2.8352,-2.8407,-2.8484,-2.8565,-2.8621,-2.8683,-2.874,-2.879,-2.8861,-2.8951,-2.8974,-2.9061,-2.9131,-2.9242,-2.9287,-2.9354,-2.9346,-2.9368,-2.9373,-2.9377,-2.9378,-2.9258,-2.9369,-2.9369,-2.9368,-2.9368,-2.9368,0,-2.8446,-2.8496,-2.8571,-2.8665,-2.8728,-2.8738,-2.8812,-2.8864,-2.8941,-2.9006,-2.9074,-2.9169,-2.9247,-2.9308,-2.9387,-2.9429,-2.9437,-2.9448,-2.9445,-2.9454,-2.938,-2.9359,-2.9441,-2.9441,-2.9441,-2.9441,-2.9441,-2.9441,-2.8502,-2.8596,-2.8629,-2.875,-2.88,-2.8888,-2.8929,-2.8985,-2.9038,-2.9144,-2.921,-2.925,-2.9313,-2.9398,-2.9469,-2.9484,-2.9512,-2.9522,-2.9538,-2.9467,-2.946,-2.9452,-2.9433,-2.9528,-2.9528,-2.9606,-2.9607,-2.9608]}]]